sat.trackr.live / text

‹ back to catalog

STARLINK-34110

NORAD 63811 · 2025-092H

PAYLOAD ACTIVE UNKNOWN

§ Identity

Operator
Country
US
Launch date
2025-05-04
Launch site
AFETR
Launch vehicle
Mass (kg)
RCS (m²)

Purposes: comms

External: N2YO · Heavens-Above · Gunter

§ Orbital elements

Epoch: 2026-06-01T18:07:39.960768Z

Period
89.28 min
Inclination
42.9807°
Eccentricity
0.0022762
Mean motion
16.12838016 rev/d
Perigee alt
224.0 km
Apogee alt
254.1 km
Semi-major
6,617.2 km
B*
4.4689e-3
RAAN
15.3193°
Arg perigee
267.2833°
Mean anomaly
92.5444°
Rev number
6,200

§ Raw data

STARLINK-341101 63811U 25092H   26152.75532362  .03887587  41480-1  44689-2 0  99932 63811  42.9807  15.3193 0022762 267.2833  92.5444 16.12838016 62005

JSON: /api/v1/satellites/63811 · /tle

For live sub-satellite position, see the globe view (requires WebGL).

§ Visibility from observer

Set your observer location to see the next 7 days of passes ≥ 10°. The values pass through the URL so the page stays shareable.

No JS? Fill the form by hand. The geolocation button needs JavaScript.